Time,TemperatureF,DewpointF,PressureIn,WindDirection,WindDirectionDegrees,WindSpeedMPH,WindSpeedGustMPH,Humidity,HourlyPrecipIn,Conditions,Clouds,dailyrainin,SoftwareType,DateUTC
2013-03-26 00:00:00,55.9,39.2,29.94,North,-999,0.0,0.0,54,0.00,,,-99.99,FreeWX-Wi 1.02,2013-03-25 23:00:00,
2013-03-26 00:10:00,55.9,37.4,29.94,North,-999,0.0,0.0,53,0.00,,,-99.99,FreeWX-Wi 1.02,2013-03-25 23:10:00,
2013-03-26 00:20:00,55.8,39.2,29.94,North,-999,0.0,0.0,54,0.00,,,-99.99,FreeWX-Wi 1.02,2013-03-25 23:20:00,
2013-03-26 00:30:00,55.8,39.2,29.91,North,-999,0.0,0.0,54,0.00,,,-99.99,FreeWX-Wi 1.02,2013-03-25 23:30:00,
2013-03-26 00:40:00,55.6,39.2,29.91,North,-999,0.0,0.0,54,0.00,,,-99.99,FreeWX-Wi 1.02,2013-03-25 23:40:00,
2013-03-26 00:50:00,55.4,37.4,29.91,North,-999,0.0,0.0,54,0.00,,,-99.99,FreeWX-Wi 1.02,2013-03-25 23:50:00,
2013-03-26 01:00:00,55.2,39.2,29.91,North,-999,0.0,4.0,55,0.00,,,-99.99,FreeWX-Wi 1.02,2013-03-26 00:00:00,
2013-03-26 01:10:00,55.4,39.2,29.91,SW,217,1.0,3.6,55,0.00,,,-99.99,FreeWX-Wi 1.02,2013-03-26 00:10:00,
2013-03-26 01:20:00,55.6,39.2,29.91,SW,219,3.0,5.4,55,0.00,,,-99.99,FreeWX-Wi 1.02,2013-03-26 00:20:00,
2013-03-26 01:30:00,55.9,39.2,29.91,SW,215,3.0,4.9,54,0.00,,,-99.99,FreeWX-Wi 1.02,2013-03-26 00:30:00,
2013-03-26 01:40:00,55.9,37.4,29.91,SW,230,2.0,4.9,53,0.00,,,-99.99,FreeWX-Wi 1.02,2013-03-26 00:40:00,
2013-03-26 01:50:00,55.6,37.4,29.91,WSW,244,1.0,3.6,53,0.00,,,-99.99,FreeWX-Wi 1.02,2013-03-26 00:50:00,
2013-03-26 02:00:00,54.9,37.4,29.91,WSW,251,2.0,7.6,55,0.00,,,-99.99,FreeWX-Wi 1.02,2013-03-26 01:00:00,
2013-03-26 02:10:00,55.0,39.2,29.91,WSW,244,3.0,6.3,55,0.00,,,-99.99,FreeWX-Wi 1.02,2013-03-26 01:10:00,
2013-03-26 02:20:00,55.4,39.2,29.91,WSW,242,4.0,11.0,55,0.00,,,-99.99,FreeWX-Wi 1.02,2013-03-26 01:20:00,
2013-03-26 02:30:00,55.6,39.2,29.91,WSW,240,4.0,6.3,54,0.00,,,-99.99,FreeWX-Wi 1.02,2013-03-26 01:30:00,
2013-03-26 02:40:00,55.6,37.4,29.91,WSW,240,4.0,8.1,53,0.00,,,-99.99,FreeWX-Wi 1.02,2013-03-26 01:40:00,
2013-03-26 02:50:00,55.8,37.4,29.88,WSW,240,5.0,8.7,52,0.00,,,-99.99,FreeWX-Wi 1.02,2013-03-26 01:50:00,
2013-03-26 03:00:00,55.9,37.4,29.91,WSW,244,6.0,8.3,51,0.00,,,-99.99,FreeWX-Wi 1.02,2013-03-26 02:00:00,
2013-03-26 03:10:00,55.9,37.4,29.91,WSW,242,5.0,5.0,51,0.00,,,-99.99,FreeWX-Wi 1.02,2013-03-26 02:10:00,
2013-03-26 03:20:00,55.8,37.4,29.88,SW,236,4.0,8.7,51,0.00,,,-99.99,FreeWX-Wi 1.02,2013-03-26 02:20:00,
2013-03-26 03:30:00,55.8,37.4,29.88,WSW,246,3.0,6.3,51,0.00,,,-99.99,FreeWX-Wi 1.02,2013-03-26 02:30:00,
2013-03-26 03:40:00,55.6,37.4,29.88,WSW,256,4.0,8.3,52,0.00,,,-99.99,FreeWX-Wi 1.02,2013-03-26 02:40:00,
2013-03-26 03:50:00,55.8,37.4,29.88,West,259,5.0,8.3,51,0.00,,,-99.99,FreeWX-Wi 1.02,2013-03-26 02:50:00,
2013-03-26 04:00:00,55.9,37.4,29.88,WSW,246,5.0,6.3,51,0.00,,,-99.99,FreeWX-Wi 1.02,2013-03-26 03:00:00,
2013-03-26 04:10:00,55.9,37.4,29.88,WSW,239,4.0,5.4,51,0.00,,,-99.99,FreeWX-Wi 1.02,2013-03-26 03:10:00,
2013-03-26 04:20:00,55.9,37.4,29.88,WSW,237,4.0,6.3,51,0.00,,,-99.99,FreeWX-Wi 1.02,2013-03-26 03:20:00,
2013-03-26 04:30:00,56.1,37.4,29.88,WSW,237,4.0,6.3,50,0.00,,,-99.99,FreeWX-Wi 1.02,2013-03-26 03:30:00,
2013-03-26 04:40:00,56.3,37.4,29.88,WSW,239,4.0,5.4,50,0.00,,,-99.99,FreeWX-Wi 1.02,2013-03-26 03:40:00,
2013-03-26 04:50:00,56.5,37.4,29.88,WSW,240,4.0,6.7,50,0.00,,,-99.99,FreeWX-Wi 1.02,2013-03-26 03:50:00,
2013-03-26 05:00:00,56.5,37.4,29.88,WSW,245,3.0,4.9,49,0.00,,,-99.99,FreeWX-Wi 1.02,2013-03-26 04:00:00,
2013-03-26 05:10:00,56.1,37.4,29.88,SSW,200,2.0,2.7,50,0.00,,,-99.99,FreeWX-Wi 1.02,2013-03-26 04:10:00,
2013-03-26 05:20:00,55.6,35.6,29.88,North,-999,0.0,0.0,50,0.00,,,-99.99,FreeWX-Wi 1.02,2013-03-26 04:20:00,
2013-03-26 05:30:00,55.0,37.4,29.85,North,-999,0.0,0.0,52,0.00,,,-99.99,FreeWX-Wi 1.02,2013-03-26 04:30:00,
2013-03-26 05:41:00,54.7,37.4,29.85,North,-999,0.0,4.0,53,0.00,,,-99.99,FreeWX-Wi 1.02,2013-03-26 04:41:00,
2013-03-26 05:50:00,54.3,37.4,29.88,North,-999,0.0,3.6,54,0.00,,,-99.99,FreeWX-Wi 1.02,2013-03-26 04:50:00,
2013-03-26 06:00:00,54.1,37.4,29.88,North,-999,0.0,0.0,55,0.00,,,-99.99,FreeWX-Wi 1.02,2013-03-26 05:00:00,
2013-03-26 06:10:00,54.1,39.2,29.88,North,-999,0.0,3.1,57,0.00,,,-99.99,FreeWX-Wi 1.02,2013-03-26 05:10:00,
2013-03-26 06:20:00,54.7,39.2,29.88,SSW,213,1.0,3.6,58,0.00,,,-99.99,FreeWX-Wi 1.02,2013-03-26 05:20:00,
2013-03-26 06:30:00,55.2,39.2,29.88,SW,214,2.0,3.1,57,0.00,,,-99.99,FreeWX-Wi 1.02,2013-03-26 05:30:00,
2013-03-26 06:40:00,55.6,39.2,29.88,SSW,210,2.0,3.6,56,0.00,,,-99.99,FreeWX-Wi 1.02,2013-03-26 05:40:00,
2013-03-26 06:50:00,55.9,39.2,29.85,SSW,205,1.0,2.7,56,0.00,,,-99.99,FreeWX-Wi 1.02,2013-03-26 05:50:00,
2013-03-26 07:00:00,55.9,39.2,29.88,SSW,205,1.0,3.6,56,0.00,,,-99.99,FreeWX-Wi 1.02,2013-03-26 06:00:00,
2013-03-26 07:10:00,55.9,41.0,29.88,North,-999,0.0,3.1,57,0.00,,,-99.99,FreeWX-Wi 1.02,2013-03-26 06:10:00,
2013-03-26 07:20:00,55.9,41.0,29.85,North,-999,0.0,0.0,57,0.00,,,-99.99,FreeWX-Wi 1.02,2013-03-26 06:20:00,
2013-03-26 07:30:00,55.8,39.2,29.85,North,-999,0.0,0.0,57,0.00,,,-99.99,FreeWX-Wi 1.02,2013-03-26 06:30:00,
2013-03-26 07:40:00,55.9,41.0,29.85,North,-999,0.0,0.0,58,0.00,,,-99.99,FreeWX-Wi 1.02,2013-03-26 06:40:00,
2013-03-26 07:50:00,55.9,41.0,29.85,North,-999,0.0,0.0,59,0.00,,,-99.99,FreeWX-Wi 1.02,2013-03-26 06:50:00,
2013-03-26 08:00:00,55.9,41.0,29.85,North,-999,0.0,0.0,59,0.00,,,-99.99,FreeWX-Wi 1.02,2013-03-26 07:00:00,
2013-03-26 08:10:00,55.8,41.0,29.85,North,-999,0.0,0.0,60,0.00,,,-99.99,FreeWX-Wi 1.02,2013-03-26 07:10:00,
2013-03-26 08:20:00,55.9,41.0,29.85,North,-999,0.0,0.0,60,0.00,,,-99.99,FreeWX-Wi 1.02,2013-03-26 07:20:00,
2013-03-26 08:30:00,55.9,41.0,29.85,North,-999,0.0,0.0,61,0.00,,,-99.99,FreeWX-Wi 1.02,2013-03-26 07:30:00,
2013-03-26 08:40:00,56.3,42.8,29.85,North,-999,0.0,0.0,62,0.00,,,-99.99,FreeWX-Wi 1.02,2013-03-26 07:40:00,
2013-03-26 08:50:00,56.5,42.8,29.85,North,-999,0.0,0.0,63,0.00,,,-99.99,FreeWX-Wi 1.02,2013-03-26 07:50:00,
2013-03-26 09:00:00,57.4,44.6,29.85,North,-999,0.0,4.0,63,0.00,,,-99.99,FreeWX-Wi 1.02,2013-03-26 08:00:00,
2013-03-26 09:10:00,58.3,44.6,29.85,North,-999,0.0,2.7,63,0.00,,,-99.99,FreeWX-Wi 1.02,2013-03-26 08:10:00,
2013-03-26 09:20:00,59.0,44.6,29.88,North,-999,0.0,0.0,62,0.00,,,-99.99,FreeWX-Wi 1.02,2013-03-26 08:20:00,
2013-03-26 09:30:00,59.4,44.6,29.88,North,-999,0.0,0.0,61,0.00,,,-99.99,FreeWX-Wi 1.02,2013-03-26 08:30:00,
2013-03-26 09:40:00,59.9,44.6,29.88,North,-999,0.0,0.0,59,0.00,,,-99.99,FreeWX-Wi 1.02,2013-03-26 08:40:00,
2013-03-26 09:50:00,60.4,44.6,29.88,North,-999,0.0,0.0,57,0.00,,,-99.99,FreeWX-Wi 1.02,2013-03-26 08:50:00,
2013-03-26 10:00:00,61.0,42.8,29.85,North,-999,0.0,4.0,52,0.00,,,-99.99,FreeWX-Wi 1.02,2013-03-26 09:00:00,
2013-03-26 10:10:00,61.3,42.8,29.85,North,-999,0.0,0.0,51,0.00,,,-99.99,FreeWX-Wi 1.02,2013-03-26 09:10:00,
2013-03-26 10:20:00,61.9,41.0,29.85,North,-999,0.0,0.0,49,0.00,,,-99.99,FreeWX-Wi 1.02,2013-03-26 09:20:00,
2013-03-26 10:30:00,62.4,42.8,29.85,North,-999,0.0,0.0,49,0.00,,,-99.99,FreeWX-Wi 1.02,2013-03-26 09:30:00,
2013-03-26 10:40:00,62.6,41.0,29.85,North,-999,0.0,4.9,47,0.00,,,-99.99,FreeWX-Wi 1.02,2013-03-26 09:40:00,
2013-03-26 10:50:00,62.8,41.0,29.85,North,-999,0.0,3.1,46,0.00,,,-99.99,FreeWX-Wi 1.02,2013-03-26 09:50:00,
2013-03-26 11:00:00,64.2,42.8,29.88,North,-999,0.0,6.3,46,0.00,,,-99.99,FreeWX-Wi 1.02,2013-03-26 10:00:00,
2013-03-26 11:10:00,65.8,42.8,29.88,North,-999,0.0,5.4,44,0.00,,,-99.99,FreeWX-Wi 1.02,2013-03-26 10:10:00,
2013-03-26 11:20:00,66.7,41.0,29.88,NW,323,1.0,5.8,41,0.00,,,-99.99,FreeWX-Wi 1.02,2013-03-26 10:20:00,
2013-03-26 11:30:00,67.3,42.8,29.85,NW,323,1.0,4.0,41,0.00,,,-99.99,FreeWX-Wi 1.02,2013-03-26 10:30:00,
2013-03-26 11:40:00,67.8,42.8,29.85,North,351,1.0,6.7,41,0.00,,,-99.99,FreeWX-Wi 1.02,2013-03-26 10:40:00,
2013-03-26 11:50:00,67.6,41.0,29.85,NNE,25,2.0,8.1,38,0.00,,,-99.99,FreeWX-Wi 1.02,2013-03-26 10:50:00,
2013-03-26 12:00:00,68.2,41.0,29.85,North,0,1.0,0.0,38,0.00,,,-99.99,FreeWX-Wi 1.02,2013-03-26 11:00:00,
2013-03-26 12:10:00,68.9,41.0,29.85,West,264,1.0,4.0,37,0.00,,,-99.99,FreeWX-Wi 1.02,2013-03-26 11:10:00,
2013-03-26 12:20:00,68.2,39.2,29.85,North,-999,0.0,4.0,37,0.00,,,-99.99,FreeWX-Wi 1.02,2013-03-26 11:20:00,
2013-03-26 12:30:00,67.8,41.0,29.85,SE,146,1.0,4.5,38,0.00,,,-99.99,FreeWX-Wi 1.02,2013-03-26 11:30:00,
2013-03-26 12:40:00,67.3,39.2,29.85,North,-999,0.0,0.0,37,0.00,,,-99.99,FreeWX-Wi 1.02,2013-03-26 11:40:00,
2013-03-26 12:50:00,67.3,39.2,29.82,North,-999,0.0,0.0,38,0.00,,,-99.99,FreeWX-Wi 1.02,2013-03-26 11:50:00,
2013-03-26 13:00:00,68.2,39.2,29.82,North,-999,0.0,6.3,37,0.00,,,-99.99,FreeWX-Wi 1.02,2013-03-26 12:00:00,
2013-03-26 13:10:00,68.2,39.2,29.82,NE,52,2.0,7.6,36,0.00,,,-99.99,FreeWX-Wi 1.02,2013-03-26 12:10:00,
2013-03-26 13:20:00,68.7,39.2,29.82,NE,47,3.0,5.8,36,0.00,,,-99.99,FreeWX-Wi 1.02,2013-03-26 12:20:00,
2013-03-26 13:30:00,68.7,39.2,29.82,NNE,29,2.0,12.3,36,0.00,,,-99.99,FreeWX-Wi 1.02,2013-03-26 12:30:00,
2013-03-26 13:40:00,68.9,41.0,29.82,NW,311,3.0,11.0,37,0.00,,,-99.99,FreeWX-Wi 1.02,2013-03-26 12:40:00,
2013-03-26 13:50:00,68.5,41.0,29.82,WSW,253,4.0,6.3,37,0.00,,,-99.99,FreeWX-Wi 1.02,2013-03-26 12:50:00,
2013-03-26 14:00:00,69.3,41.0,29.82,WSW,245,4.0,7.6,37,0.00,,,-99.99,FreeWX-Wi 1.02,2013-03-26 13:00:00,
2013-03-26 14:10:00,69.8,41.0,29.82,WSW,252,3.0,6.3,36,0.00,,,-99.99,FreeWX-Wi 1.02,2013-03-26 13:10:00,
2013-03-26 14:20:00,70.3,41.0,29.82,West,265,3.0,6.3,35,0.00,,,-99.99,FreeWX-Wi 1.02,2013-03-26 13:20:00,
2013-03-26 14:30:00,70.5,41.0,29.82,NW,306,3.0,8.3,35,0.00,,,-99.99,FreeWX-Wi 1.02,2013-03-26 13:30:00,
2013-03-26 14:40:00,71.2,41.0,29.82,NW,326,3.0,8.1,35,0.00,,,-99.99,FreeWX-Wi 1.02,2013-03-26 13:40:00,
2013-03-26 14:50:00,72.0,41.0,29.79,NW,318,4.0,6.7,34,0.00,,,-99.99,FreeWX-Wi 1.02,2013-03-26 13:50:00,
2013-03-26 15:00:00,72.1,41.0,29.79,NW,316,4.0,8.7,34,0.00,,,-99.99,FreeWX-Wi 1.02,2013-03-26 14:00:00,
2013-03-26 15:10:00,72.3,41.0,29.79,NW,312,4.0,8.7,34,0.00,,,-99.99,FreeWX-Wi 1.02,2013-03-26 14:10:00,
2013-03-26 15:20:00,72.9,41.0,29.79,NW,316,5.0,8.7,33,0.00,,,-99.99,FreeWX-Wi 1.02,2013-03-26 14:20:00,
2013-03-26 15:30:00,73.4,41.0,29.79,NW,315,5.0,8.7,33,0.00,,,-99.99,FreeWX-Wi 1.02,2013-03-26 14:30:00,
2013-03-26 15:40:00,73.0,41.0,29.79,WNW,300,5.0,6.3,33,0.00,,,-99.99,FreeWX-Wi 1.02,2013-03-26 14:40:00,
2013-03-26 15:50:00,72.1,41.0,29.79,WNW,288,4.0,11.0,33,0.00,,,-99.99,FreeWX-Wi 1.02,2013-03-26 14:50:00,
2013-03-26 16:00:00,71.1,41.0,29.79,West,274,4.0,9.6,35,0.00,,,-99.99,FreeWX-Wi 1.02,2013-03-26 15:00:00,
2013-03-26 16:10:00,69.6,41.0,29.79,West,273,5.0,8.1,37,0.00,,,-99.99,FreeWX-Wi 1.02,2013-03-26 15:10:00,
2013-03-26 16:20:00,69.1,41.0,29.76,West,260,4.0,7.6,36,0.00,,,-99.99,FreeWX-Wi 1.02,2013-03-26 15:20:00,
2013-03-26 16:30:00,69.8,39.2,29.76,West,270,4.0,8.7,35,0.00,,,-99.99,FreeWX-Wi 1.02,2013-03-26 15:30:00,
2013-03-26 16:40:00,71.4,41.0,29.76,West,276,5.0,10.1,34,0.00,,,-99.99,FreeWX-Wi 1.02,2013-03-26 15:40:00,
2013-03-26 16:50:00,72.0,41.0,29.76,WNW,285,6.0,8.7,34,0.00,,,-99.99,FreeWX-Wi 1.02,2013-03-26 15:50:00,
2013-03-26 17:00:00,70.2,39.2,29.76,WSW,256,6.0,10.5,34,0.00,,,-99.99,FreeWX-Wi 1.02,2013-03-26 16:00:00,
2013-03-26 17:10:00,69.3,39.2,29.76,SW,230,5.0,9.2,35,0.00,,,-99.99,FreeWX-Wi 1.02,2013-03-26 16:10:00,
2013-03-26 17:20:00,69.1,41.0,29.76,SW,223,5.0,8.1,36,0.00,,,-99.99,FreeWX-Wi 1.02,2013-03-26 16:20:00,
2013-03-26 17:30:00,68.5,39.2,29.76,SW,226,6.0,13.6,35,0.00,,,-99.99,FreeWX-Wi 1.02,2013-03-26 16:30:00,
2013-03-26 17:40:00,67.6,39.2,29.76,SW,230,6.0,12.3,37,0.00,,,-99.99,FreeWX-Wi 1.02,2013-03-26 16:40:00,
2013-03-26 17:50:00,67.1,39.2,29.76,SW,229,7.0,9.6,37,0.00,,,-99.99,FreeWX-Wi 1.02,2013-03-26 16:50:00,
2013-03-26 18:00:00,66.7,39.2,29.76,SW,229,6.0,9.6,37,0.00,,,-99.99,FreeWX-Wi 1.02,2013-03-26 17:00:00,
2013-03-26 18:10:00,66.4,39.2,29.76,SW,226,6.0,8.7,37,0.00,,,-99.99,FreeWX-Wi 1.02,2013-03-26 17:10:00,
2013-03-26 18:20:00,66.0,39.2,29.76,SW,223,6.0,8.7,38,0.00,,,-99.99,FreeWX-Wi 1.02,2013-03-26 17:20:00,
2013-03-26 18:30:00,66.0,37.4,29.76,SW,223,6.0,10.1,37,0.00,,,-99.99,FreeWX-Wi 1.02,2013-03-26 17:30:00,
2013-03-26 18:40:00,65.8,37.4,29.76,SW,225,5.0,10.1,37,0.00,,,-99.99,FreeWX-Wi 1.02,2013-03-26 17:40:00,
2013-03-26 18:50:00,65.5,39.2,29.76,SW,226,5.0,10.5,38,0.00,,,-99.99,FreeWX-Wi 1.02,2013-03-26 17:50:00,
2013-03-26 19:00:00,64.9,37.4,29.76,SW,225,5.0,7.6,38,0.00,,,-99.99,FreeWX-Wi 1.02,2013-03-26 18:00:00,
2013-03-26 19:10:00,64.6,37.4,29.76,SW,226,5.0,10.5,38,0.00,,,-99.99,FreeWX-Wi 1.02,2013-03-26 18:10:00,
2013-03-26 19:20:00,64.4,37.4,29.76,SW,228,5.0,11.0,38,0.00,,,-99.99,FreeWX-Wi 1.02,2013-03-26 18:20:00,
2013-03-26 19:30:00,64.0,37.4,29.76,SW,227,6.0,10.1,39,0.00,,,-99.99,FreeWX-Wi 1.02,2013-03-26 18:30:00,
2013-03-26 19:40:00,63.9,37.4,29.76,SW,227,5.0,8.7,39,0.00,,,-99.99,FreeWX-Wi 1.02,2013-03-26 18:40:00,
2013-03-26 19:50:00,63.9,37.4,29.76,SW,229,4.0,8.7,38,0.00,,,-99.99,FreeWX-Wi 1.02,2013-03-26 18:50:00,
2013-03-26 20:00:00,63.9,37.4,29.76,SW,232,4.0,7.6,38,0.00,,,-99.99,FreeWX-Wi 1.02,2013-03-26 19:00:00,
2013-03-26 20:10:00,63.7,37.4,29.76,SW,231,4.0,8.1,38,0.00,,,-99.99,FreeWX-Wi 1.02,2013-03-26 19:10:00,
2013-03-26 20:20:00,63.5,37.4,29.76,SW,230,4.0,8.3,38,0.00,,,-99.99,FreeWX-Wi 1.02,2013-03-26 19:20:00,
2013-03-26 20:30:00,63.3,35.6,29.76,SW,230,4.0,7.6,38,0.00,,,-99.99,FreeWX-Wi 1.02,2013-03-26 19:30:00,
2013-03-26 20:40:00,63.1,37.4,29.76,SW,234,5.0,10.1,39,0.00,,,-99.99,FreeWX-Wi 1.02,2013-03-26 19:40:00,
2013-03-26 20:50:00,63.0,35.6,29.76,SW,234,5.0,8.3,38,0.00,,,-99.99,FreeWX-Wi 1.02,2013-03-26 19:50:00,
2013-03-26 21:00:00,63.0,35.6,29.76,SW,231,6.0,11.0,38,0.00,,,-99.99,FreeWX-Wi 1.02,2013-03-26 20:00:00,
2013-03-26 21:10:00,63.0,35.6,29.76,SW,232,6.0,10.5,38,0.00,,,-99.99,FreeWX-Wi 1.02,2013-03-26 20:10:00,
2013-03-26 21:20:00,62.6,35.6,29.76,SW,235,6.0,9.2,38,0.00,,,-99.99,FreeWX-Wi 1.02,2013-03-26 20:20:00,
2013-03-26 21:30:00,62.6,35.6,29.76,WSW,240,5.0,7.6,38,0.00,,,-99.99,FreeWX-Wi 1.02,2013-03-26 20:30:00,
2013-03-26 21:40:00,62.4,35.6,29.76,WSW,238,4.0,7.6,38,0.00,,,-99.99,FreeWX-Wi 1.02,2013-03-26 20:40:00,
2013-03-26 21:50:00,62.4,35.6,29.76,WSW,238,4.0,10.1,38,0.00,,,-99.99,FreeWX-Wi 1.02,2013-03-26 20:50:00,
2013-03-26 22:00:00,62.2,35.6,29.76,WSW,238,5.0,10.5,38,0.00,,,-99.99,FreeWX-Wi 1.02,2013-03-26 21:00:00,
2013-03-26 22:10:00,62.2,35.6,29.76,WSW,249,5.0,8.1,38,0.00,,,-99.99,FreeWX-Wi 1.02,2013-03-26 21:10:00,
2013-03-26 22:20:00,61.9,35.6,29.79,West,280,4.0,5.8,39,0.00,,,-99.99,FreeWX-Wi 1.02,2013-03-26 21:20:00,
2013-03-26 22:30:00,61.7,35.6,29.79,WNW,300,2.0,3.1,40,0.00,,,-99.99,FreeWX-Wi 1.02,2013-03-26 21:30:00,
2013-03-26 22:40:00,61.2,37.4,29.79,North,-999,0.0,0.0,42,0.00,,,-99.99,FreeWX-Wi 1.02,2013-03-26 21:40:00,
2013-03-26 22:50:00,60.8,37.4,29.79,North,-999,0.0,5.8,42,0.00,,,-99.99,FreeWX-Wi 1.02,2013-03-26 21:50:00,
2013-03-26 23:00:00,61.0,35.6,29.79,West,280,2.0,8.7,40,0.00,,,-99.99,FreeWX-Wi 1.02,2013-03-26 22:00:00,
2013-03-26 23:10:00,61.5,35.6,29.79,West,266,4.0,7.6,40,0.00,,,-99.99,FreeWX-Wi 1.02,2013-03-26 22:10:00,
2013-03-26 23:20:00,61.7,35.6,29.76,West,265,4.0,8.3,40,0.00,,,-99.99,FreeWX-Wi 1.02,2013-03-26 22:20:00,
2013-03-26 23:30:00,61.9,37.4,29.76,WSW,256,5.0,10.5,42,0.00,,,-99.99,FreeWX-Wi 1.02,2013-03-26 22:30:00,
2013-03-26 23:40:00,61.5,39.2,29.76,WSW,240,6.0,13.2,44,0.00,,,-99.99,FreeWX-Wi 1.02,2013-03-26 22:40:00,
2013-03-26 23:50:00,61.2,39.2,29.76,SW,233,6.0,11.0,45,0.00,,,-99.99,FreeWX-Wi 1.02,2013-03-26 22:50:00,